| time (UTC) | temp F | wind direction | speed MPH | gust MPH | rain 1hr in | rain 24hr in | rain mn in | humidity % | barometer mb |
| 20260831041939 | 57 | 200 | 15.0 | 0.0 | 0.00 | 0.00 | 0.00 | 67 | |
| 20260831031639 | 55 | 210 | 17.0 | 0.0 | 0.00 | 0.00 | 0.00 | 82 | |
| 20260831021738 | 55 | 220 | 16.0 | 0.0 | 0.00 | 0.00 | 0.00 | 82 | |
| 20260831011739 | 54 | 260 | 16.0 | 0.0 | 0.00 | 0.00 | 0.00 | 93 | |
| 20260831001639 | 54 | 260 | 20.0 | 0.0 | 0.00 | 0.00 | 0.00 | 93 | |
| 20260830231839 | 55 | 250 | 20.0 | 0.0 | 0.00 | 0.00 | 0.00 | 82 | |
| 20260830221839 | 55 | 250 | 17.0 | 0.0 | 0.00 | 0.00 | 0.00 | 82 | |
| 20260830211640 | 55 | 260 | 17.0 | 0.0 | 0.00 | 0.00 | 0.00 | 76 | |
| 20260830201838 | 55 | 260 | 21.0 | 0.0 | 0.00 | 0.00 | 0.00 | 76 | |
| 20260830191739 | 57 | 260 | 21.0 | 0.0 | 0.00 | 0.00 | 0.00 | 71 | |
| 20260830181640 | 57 | 260 | 18.0 | 0.0 | 0.00 | 0.00 | 0.00 | 71 | |
| 20260830171838 | 61 | 260 | 17.0 | 25.0 | 0.00 | 0.00 | 0.00 | 63 | |
| 20260830161739 | 63 | 260 | 23.0 | 30.0 | 0.00 | 0.00 | 0.00 | 59 | |
| 20260830151639 | 64 | 260 | 21.0 | 28.0 | 0.00 | 0.00 | 0.00 | 59 | |
| 20260830141738 | 63 | 260 | 21.0 | 29.0 | 0.00 | 0.00 | 0.00 | 63 | |
| 20260830131738 | 64 | 250 | 23.0 | 37.0 | 0.00 | 0.00 | 0.00 | 55 | |
| 20260830121640 | 64 | 240 | 23.0 | 38.0 | 0.00 | 0.00 | 0.00 | 59 | |
| 20260830111738 | 59 | 250 | 20.0 | 28.0 | 0.00 | 0.00 | 0.00 | 77 | |
| 20260830101939 | 59 | 240 | 20.0 | 31.0 | 0.00 | 0.00 | 0.00 | 77 | |
| 20260830091639 | 59 | 240 | 25.0 | 36.0 | 0.00 | 0.00 | 0.00 | 77 | |
| 20260830081739 | 57 | 240 | 29.0 | 37.0 | 0.00 | 0.00 | 0.00 | 82 | |
| 20260830071738 | 55 | 250 | 30.0 | 40.0 | 0.00 | 0.00 | 0.00 | 87 | |
| 20260830061640 | 54 | 250 | 26.0 | 36.0 | 0.00 | 0.00 | 0.00 | 93 | |
| 20260830051738 | 52 | 250 | 31.0 | 40.0 | 0.00 | 0.00 | 0.00 | 93 |